User: anonymous   Login
Location: Le Rocchette
(44.3500°N, 7.8333°E)
Time: 17:16:18
(UTC+00:00)
Language:

STARLINK-75 - Orbit

View from above orbital plane
View from above orbital plane
View from above satellite
View from above satellite

Ground track
Ground track

The orbit data is extracted from the following two-line orbital elements,

1 44286U 19029BD  20025.58335648  .00136704  00000-0  51739-2 0  9994
2 44286  53.0048 140.2929 0001679  45.6039 278.2351 15.25933046 38426
Epoch (UTC): 25 January 2020 14:00:02
Eccentricity: 0.0001679
inclination: 53.0048°
perigee height: 487 km
apogee height: 489 km
right ascension of ascending node: 140.2929°
argument of perigee: 45.6039°
revolutions per day: 15.25933046
mean anomaly at epoch: 278.2351°
orbit number at epoch: 3842

The dashed part of the orbit path shows where the satellite is in the earth's shadow,  

DLR